[[{"header":{"parameterUnit":"m.s-1","parameterCategory":1,"la1":30.2991,"la2":30.254,"lo1":-89.0895,"lo2":-89.0444,"dy":0.0017,"dx":0.0017,"nx":28,"ny":28,"refTime":"2025-12-26T03:00:00:Z","depth":0,"parameterNumber":2,"parameterNumberName":"U-component_of_WINDS"},"data":[0,0,0,0,0,0,0,0,0,0,0,0,0,0,0,0,0,0,0,0,0,0,0,0,0,0,0,0,0,0,0,0,0,0,0,0,0,0,0,0,0,0,0,0,0,0,0,0,0,0,0,0,0,0,0,0,0,0,1.836,1.836,0,1.8327,1.8326,1.8326,1.835,1.8351,1.8353,1.8354,1.8318,1.8316,1.8314,0,0,0,0,0,0,0,0,0,0,0,0,0,1.8446,1.8445,1.836,1.836,1.8359,1.8327,1.8326,1.8326,1.835,1.8351,1.8353,1.8354,1.8319,1.8317,1.8314,0,0,0,0,0,0,0,0,0,0,0,0,0,1.841,1.8444,1.836,1.8367,1.8368,1.8327,1.8326,1.8326,1.835,1.8352,1.8353,1.8355,1.832,1.8317,1.8314,1.8263,0,0,1.8305,1.8304,0,0,0,0,0,0,0,0,1.8412,1.8407,1.8367,1.8367,1.8367,1.8344,1.8344,1.8305,1.8349,1.8357,1.8354,1.8355,1.8326,1.8322,1.8312,1.8262,1.826,1.8305,1.8303,1.8302,1.8301,0,0,0,0,0,0,0,1.8415,1.8409,1.8347,1.8366,1.8366,1.8373,1.837,1.8337,1.8332,1.8356,1.8358,1.8354,1.8326,1.8315,1.8312,1.826,1.8305,1.8302,1.83,1.8299,1.8171,1.8169,0,0,0,0,0,0,1.8417,1.8411,1.8348,1.8346,1.8394,1.837,1.8366,1.835,1.8333,1.8332,1.8352,1.8355,1.8319,1.8315,1.8311,1.8253,1.8302,1.8299,1.8297,1.8173,1.8171,1.8169,0,0,0,0,0,0,1.8418,1.8411,1.8349,1.8379,1.8371,1.8367,1.8348,1.8348,1.8338,1.833,1.8329,1.8342,1.832,1.8315,1.8276,1.8252,1.8298,1.8295,1.8175,1.8172,1.817,1.8137,0,0,0,0,0,0,1.8421,1.8411,1.8391,1.8378,1.837,1.8314,1.8347,1.8347,1.8333,1.8336,1.832,1.8319,1.8321,1.828,1.8273,1.8249,1.8293,1.8177,1.8174,1.8171,1.814,1.8134,1.8128,0,0,0,0,0,1.8424,1.8382,1.839,1.8382,1.8345,1.8313,1.8308,1.8312,1.8331,1.8311,1.8307,1.8319,1.8256,1.8276,1.8268,1.8243,1.8178,1.8174,1.8171,1.8143,1.8135,1.8128,0,0,0,0,0,0,1.8391,1.838,1.8389,1.8342,1.8328,1.8317,1.8292,1.8303,1.8283,1.8287,1.8292,1.8289,1.8249,1.8242,1.8265,1.8196,1.822,1.8215,1.8202,1.8194,1.8188,1.8191,1.829,0,0,0,0,0,1.8378,1.8353,1.8345,1.8304,1.8298,1.8296,1.8282,1.8287,1.8273,1.8267,1.826,1.8246,1.8224,1.8208,1.8187,1.8139,1.8138,1.8119,1.8113,1.8108,1.8103,1.8081,1.8074,1.8157,1.8157,1.8157,0,0,1.8351,1.8343,1.8326,1.8298,1.8288,1.8263,1.8291,1.8262,1.8245,1.8263,1.8227,1.8221,1.8206,1.8164,1.8145,1.8157,1.808,1.8103,1.8099,1.8097,1.8077,1.8069,1.8062,1.8154,1.8155,1.8155,0,0,1.829,1.828,1.8247,1.8238,1.8223,1.8223,1.8216,1.8204,1.8201,1.8166,1.818,1.8159,1.8119,1.8109,1.8099,1.8039,1.8051,1.8032,1.8001,1.7979,1.7973,1.7967,1.7948,1.7941,1.8027,1.8027,1.8027,0,1.8259,1.8222,1.8228,1.82,1.8189,1.8206,1.8174,1.8164,1.8142,1.8135,1.8149,1.8102,1.8093,1.805,1.8037,1.8026,1.8019,1.8034,1.7973,1.7968,1.7962,1.7945,1.7937,1.8025,1.8025,1.8026,1.8026,0,1.8185,1.816,1.8135,1.8116,1.8102,1.8071,1.8075,1.8059,1.8066,1.8066,1.8031,1.8021,1.8,1.799,1.7995,1.795,1.7958,1.7972,1.7997,1.7952,1.7936,1.7929,1.8022,1.8023,1.8024,1.8024,0,0,1.81,1.8089,1.808,1.8073,1.8061,1.8041,1.8013,1.7994,1.7982,1.7968,1.7946,1.7914,1.7929,1.7917,1.7922,1.7903,1.7861,1.792,1.792,1.7911,1.7813,1.7803,1.7795,1.7868,1.7867,1.7866,1.7815,0,1.804,1.7992,1.7999,1.7953,1.7931,1.795,1.7926,1.7916,1.7916,1.7898,1.7897,1.7876,1.7895,1.7889,1.7871,1.7869,1.7841,1.7873,1.7849,1.7848,1.7854,1.7786,1.7775,1.7727,1.7809,1.7807,1.7807,0,1.7963,1.7949,1.7901,1.7896,1.7888,1.7866,1.7851,1.7833,1.7824,1.7825,1.7815,1.7824,1.7798,1.7823,1.7789,1.7811,1.7802,1.78,1.7798,1.7797,1.7825,1.7785,1.7712,1.7705,1.7796,1.7797,1.7798,0,1.7909,1.7878,1.7846,1.784,1.7832,1.7818,1.7814,1.7806,1.7796,1.7783,1.7776,1.776,1.7751,1.7739,1.7745,1.7762,1.771,1.7735,1.7712,1.7712,1.77,1.7701,1.7626,1.7692,1.7692,1.7692,1.7692,0,1.7842,1.7813,1.7823,1.7803,1.7772,1.7782,1.775,1.7749,1.7743,1.7725,1.7739,1.7722,1.773,1.7714,1.7718,1.7691,1.7686,1.7687,1.7689,1.7687,1.7687,1.7681,1.7685,1.769,1.7691,1.7691,1.7691,0,1.7776,1.7781,1.7748,1.7746,1.7744,1.7722,1.772,1.7703,1.7705,1.7682,1.7677,1.768,1.7662,1.7667,1.7647,1.765,1.7616,1.7621,1.762,1.7621,1.7599,1.7602,1.7519,1.751,1.758,1.7579,1.7579,0,1.7733,1.7712,1.7708,1.7698,1.7693,1.7676,1.7666,1.7676,1.7665,1.7656,1.764,1.7624,1.7611,1.7582,1.7583,1.7569,1.7575,1.7547,1.7573,1.7572,1.7577,1.7579,1.7578,1.7542,1.7541,1.754,1.754,0,1.7658,1.7663,1.7649,1.7637,1.7625,1.7615,1.7607,1.7598,1.7607,1.7595,1.7578,1.7568,1.755,1.7534,1.7522,1.7519,1.7532,1.7532,1.7527,1.7524,1.7525,1.7527,1.7608,1.7534,1.7535,1.7535,1.7535,1.7536,1.7604,1.7587,1.7583,1.7568,1.7564,1.7557,1.7542,1.7544,1.753,1.7516,1.7523,1.7504,1.7499,1.7484,1.748,1.7466,1.7477,1.7468,1.7466,1.7464,1.7462,1.7527,1.7464,1.7464,1.7464,1.7464,1.7464,0,1.7532,1.7531,1.7517,1.7507,1.7496,1.751,1.7503,1.7493,1.7476,1.7471,1.746,1.7442,1.7428,1.7429,1.7417,1.7406,1.7412,1.7403,1.7404,1.7404,1.7452,1.7459,1.7398,1.7398,1.7398,1.7398,1.7398,1.7399,1.7493,1.7467,1.7472,1.7445,1.7444,1.7427,1.7422,1.7417,1.7413,1.7393,1.7382,1.7384,1.7382,1.7371,1.736,1.736,1.7356,1.7345,1.7348,1.7393,1.74,1.7406,1.7413,1.7344,1.7344,1.7302,1.7301,1.7301]},{"header":{"parameterUnit":"m.s-1","parameterCategory":1,"la1":30.2991,"la2":30.254,"lo1":-89.0895,"lo2":-89.0444,"dy":0.0017,"dx":0.0017,"nx":28,"ny":28,"refTime":"2025-12-26T03:00:00:Z","depth":0,"parameterNumber":3,"parameterNumberName":"V-component_of_WINDS"},"data":[0,0,0,0,0,0,0,0,0,0,0,0,0,0,0,0,0,0,0,0,0,0,0,0,0,0,0,0,0,0,0,0,0,0,0,0,0,0,0,0,0,0,0,0,0,0,0,0,0,0,0,0,0,0,0,0,0,0,2.1811,2.1811,0,2.186,2.1861,2.1861,2.1871,2.1871,2.187,2.187,2.1917,2.1919,2.192,0,0,0,0,0,0,0,0,0,0,0,0,0,2.172,2.1722,2.1811,2.1811,2.1812,2.186,2.1861,2.1862,2.1871,2.1871,2.187,2.187,2.1917,2.1919,2.1921,0,0,0,0,0,0,0,0,0,0,0,0,0,2.1764,2.1723,2.181,2.1823,2.1824,2.186,2.1861,2.1862,2.1871,2.1871,2.187,2.187,2.1916,2.1918,2.1921,2.1947,0,0,2.1928,2.1929,0,0,0,0,0,0,0,0,2.1761,2.1767,2.182,2.1822,2.1824,2.1859,2.1846,2.189,2.1871,2.1853,2.187,2.1869,2.1898,2.1902,2.1912,2.1949,2.1951,2.1928,2.193,2.1931,2.1932,0,0,0,0,0,0,0,2.1758,2.1765,2.183,2.1821,2.1823,2.1824,2.183,2.1855,2.1878,2.1855,2.1856,2.1862,2.1899,2.191,2.1914,2.1952,2.1928,2.1931,2.1932,2.1933,2.2012,2.2013,0,0,0,0,0,0,2.1754,2.1762,2.1829,2.1832,2.1791,2.1826,2.1833,2.1848,2.1878,2.1882,2.1862,2.1862,2.1906,2.1911,2.1915,2.1948,2.1931,2.1933,2.1935,2.2012,2.2012,2.2013,0,0,0,0,0,0,2.1752,2.1759,2.1827,2.1797,2.1806,2.1829,2.1846,2.1849,2.1861,2.1883,2.1887,2.1869,2.1906,2.1912,2.1939,2.1949,2.1934,2.1936,2.2011,2.2012,2.2013,2.2013,0,0,0,0,0,0,2.1749,2.1759,2.177,2.1797,2.1807,2.1851,2.1847,2.1851,2.1865,2.1865,2.1891,2.1895,2.1906,2.1936,2.1942,2.1953,2.1938,2.201,2.2011,2.2012,2.2012,2.2014,2.2015,0,0,0,0,0,2.1746,2.1767,2.177,2.1778,2.1822,2.1851,2.1857,2.187,2.1866,2.1877,2.1891,2.1894,2.1947,2.1938,2.1945,2.1957,2.2009,2.2011,2.2012,2.2011,2.2013,2.2015,0,0,0,0,0,0,2.1739,2.1771,2.1775,2.1806,2.1826,2.1853,2.1867,2.1872,2.1893,2.1892,2.1906,2.1912,2.1938,2.195,2.194,2.1984,2.1978,2.1981,2.1975,2.1977,2.1979,2.1975,2.194,0,0,0,0,0,2.1741,2.1764,2.179,2.1815,2.1825,2.1844,2.1857,2.1866,2.1887,2.1895,2.1911,2.193,2.1951,2.1965,2.1985,2.2014,2.2019,2.2025,2.2027,2.2028,2.203,2.2045,2.2048,2.2018,2.2018,2.2018,0,0,2.1746,2.1766,2.1779,2.1814,2.1831,2.1852,2.1851,2.1874,2.189,2.1898,2.1925,2.1938,2.196,2.1988,2.2001,2.1999,2.204,2.203,2.2031,2.2032,2.2047,2.205,2.2053,2.2019,2.2019,2.2019,0,0,2.1765,2.1783,2.1806,2.1823,2.1848,2.1861,2.1866,2.1892,2.1902,2.1929,2.1936,2.1954,2.199,2.2005,2.2018,2.2043,2.2046,2.2049,2.2057,2.2072,2.2074,2.2076,2.2085,2.2088,2.2051,2.2051,2.2051,0,2.1767,2.1802,2.1817,2.184,2.1854,2.1864,2.1886,2.1901,2.1931,2.1941,2.1938,2.1983,2.1999,2.203,2.2036,2.2046,2.2052,2.2046,2.2073,2.2075,2.2077,2.2086,2.2089,2.2051,2.2051,2.2051,2.2051,0,2.1803,2.1826,2.1841,2.1872,2.1888,2.191,2.1928,2.1942,2.1949,2.1962,2.1989,2.2008,2.2033,2.2041,2.2047,2.2073,2.2071,2.207,2.2065,2.208,2.2088,2.2091,2.2052,2.2052,2.2052,2.2052,0,0,2.1819,2.1858,2.1863,2.1877,2.1905,2.1923,2.1945,2.197,2.1982,2.2003,2.2021,2.2051,2.2051,2.2065,2.2074,2.2087,2.2105,2.2085,2.2085,2.2087,2.2133,2.2133,2.2137,2.2107,2.2108,2.2108,2.2131,0,2.1842,2.1883,2.1897,2.1931,2.1953,2.1962,2.1981,2.2,2.2012,2.2031,2.2044,2.2065,2.2064,2.2072,2.2086,2.21,2.2114,2.2098,2.2123,2.2124,2.2117,2.2141,2.2141,2.2162,2.2134,2.2135,2.2135,0,2.1873,2.1896,2.1932,2.1958,2.1967,2.1985,2.2009,2.2027,2.2048,2.2056,2.2072,2.2079,2.2102,2.2095,2.2126,2.2115,2.2126,2.2134,2.2135,2.2138,2.213,2.2143,2.2169,2.2172,2.214,2.214,2.214,0,2.1881,2.192,2.1947,2.1958,2.1989,2.2001,2.2014,2.2035,2.2049,2.2069,2.2078,2.2101,2.2113,2.2129,2.2142,2.2136,2.2171,2.2166,2.2178,2.2177,2.2184,2.2184,2.2211,2.2192,2.2192,2.2192,2.2192,0,2.1904,2.1926,2.1951,2.1967,2.1991,2.2007,2.203,2.2043,2.2062,2.208,2.2089,2.2106,2.2122,2.214,2.215,2.2174,2.2179,2.2185,2.2187,2.2184,2.2183,2.2191,2.219,2.2193,2.2192,2.2192,2.2192,0,2.1917,2.1934,2.1964,2.1991,2.1998,2.2015,2.2038,2.2053,2.2066,2.2089,2.2095,2.2115,2.2137,2.2152,2.2179,2.2186,2.2212,2.2214,2.2205,2.2206,2.2217,2.2215,2.225,2.2255,2.2233,2.2233,2.2233,0,2.193,2.1948,2.1977,2.1991,2.2004,2.2026,2.204,2.2056,2.2071,2.2096,2.2108,2.2131,2.2151,2.2186,2.2201,2.2223,2.2225,2.2236,2.2228,2.2224,2.2225,2.2224,2.2225,2.2237,2.2237,2.2237,2.2237,0,2.1953,2.196,2.1982,2.2007,2.2024,2.2044,2.2063,2.2074,2.2092,2.2108,2.2132,2.2147,2.2176,2.2198,2.2221,2.2233,2.2238,2.224,2.2243,2.224,2.2234,2.2237,2.2208,2.2239,2.2238,2.2238,2.2238,2.2238,2.1966,2.1981,2.2005,2.2028,2.2045,2.2063,2.2079,2.2094,2.2115,2.2141,2.2148,2.2172,2.2193,2.2224,2.2237,2.2255,2.2254,2.2259,2.226,2.2261,2.2261,2.2232,2.2259,2.2259,2.2259,2.2259,2.2259,0,2.1988,2.2004,2.2025,2.2053,2.2071,2.2076,2.2098,2.2112,2.2134,2.2153,2.2172,2.2199,2.2221,2.2239,2.2261,2.2272,2.2275,2.2277,2.2276,2.2279,2.2261,2.2256,2.2275,2.2275,2.2275,2.2275,2.2275,2.2275,2.2002,2.2028,2.2039,2.2073,2.2089,2.2114,2.2126,2.2142,2.2158,2.2187,2.2206,2.2218,2.2236,2.226,2.228,2.2284,2.2292,2.2294,2.2299,2.2282,2.228,2.2279,2.2273,2.2296,2.2296,2.2315,2.2315,2.2315]}]]